Location: Unspecified
(0.0000°N, 0.0000°E)
Time: 03:41:54
(UTC+01:00)

Meteor 2-8 Rocket - Visible Passes

Search period start: 10 February 2016 00:00
Search period end: 20 February 2016 00:00
Orbit: 936 x 959 km, 82.5° (Epoch: 09 February)

Date Brightness Start Highest point End Pass type
(mag) Time Alt. Az. Time Alt. Az. Time Alt. Az.
10 Feb 6.7 06:29:39 10° SSE 06:34:50 29° E 06:39:58 10° NE visible
10 Feb 5.3 19:29:26 10° NNW 19:35:22 58° W 19:41:23 10° S visible
11 Feb 5.5 06:45:48 10° S 06:51:44 53° E 06:57:37 10° NNE visible
11 Feb 6.5 19:46:59 10° NNW 19:52:16 32° W 19:57:37 10° SSW visible
12 Feb 7.4 20:05:20 10° NW 20:09:10 17° W 20:13:01 10° SW visible
13 Feb 7.6 05:38:44 10° ESE 05:40:58 12° E 05:43:12 10° ENE visible
14 Feb 6.9 05:53:09 10° SE 05:57:52 23° E 06:02:33 10° NE visible
15 Feb 5.8 06:09:03 10° SSE 06:14:46 42° E 06:20:26 10° NNE visible
16 Feb 4.7 06:25:33 10° S 06:31:39 77° E 06:37:42 10° N visible
17 Feb 4.5 06:42:32 10° SSW 06:48:33 59° W 06:54:29 10° N visible
17 Feb 8.0 19:47:30 10° WNW 19:49:06 11° W 19:50:44 10° WSW visible
18 Feb 7.0 05:16:49 10° SE 05:20:54 19° E 05:24:57 10° NE visible
19 Feb 6.1 05:32:22 10° SSE 05:37:48 34° E 05:43:11 10° NNE visible
